San Angelo, TX

4:53 PM CDT on April 23, 2018 (GMT -0500)
San Angelo Regional-Mathis

Weather History for KSJT - November, 2010

Change the Weather History Date:

Monday, November 8, 2010

  Actual Average Record
Temperature  
Mean Temperature 65 °F 58 °F  
Max Temperature 79 °F 71 °F 93 °F (1980)
Min Temperature 51 °F 46 °F 25 °F (1938)
Degree Days  
Heating Degree Days 0 8  
Month to date heating degree days 51 53  
Since 1 July heating degree days 75 144  
Cooling Degree Days 0 1  
Month to date cooling degree days 0 9  
Year to date cooling degree days 2938 2493  
Growing Degree Days 15 (Base 50)    
Moisture  
Dew Point 44 °F    
Average Humidity 55    
Maximum Humidity 83    
Minimum Humidity 26    
Precipitation  
Precipitation 0.00 in 0.05 in 1.25 in (1940)
Month to date precipitation 0.00 0.42  
Year to date precipitation 19.14 19.68  
Snow  
Snow 0.00 in 0.00 in 5.80 in (1968)
Month to date snowfall 0.0 0.0  
Since 1 July snowfall 0.0 0.0  
Snow Depth 0.00 in    
Sea Level Pressure  
Sea Level Pressure 29.96 in    
Wind  
Wind Speed 13 mph (South)    
Max Wind Speed 25 mph    
Max Gust Speed 33 mph    
Visibility 10 miles    
Events      
T = Trace of Precipitation, MM = Missing Value Source: NWS Daily Summary

Daily Weather History Graph

Daily Weather History Graph

Search for Another Location

Airport or City:

Astronomy

Nov. 08, 2010 Rise Set
Actual Time 7:03 AM CST 5:47 PM CST
Civil Twilight 6:38 AM CST 6:12 PM CST
Nautical Twilight 6:09 AM CST 6:41 PM CST
Astronomical Twilight 5:40 AM CST 7:10 PM CST
Moon 9:41 AM CST (11/8) 7:56 PM CST (11/8)
Length of Visible Light 11h 34m
Length of Day
10h 44m
Waxing Crescent, 8% of the Moon is Illuminated
Nov 8
Waxing Crescent
Nov 13
First Quarter
Nov 21
Full
Nov 28
Last Quarter
Dec 5
New

Hourly Weather History & Observations

Time (CST) Temp. Dew Point Humidity Pressure Visibility Wind Dir Wind Speed Gust Speed Precip Events Conditions
12:51 AM 54.0 °F 37.9 °F 55% 30.07 in 10.0 mi South 8.1 mph - N/A   Clear
1:51 AM 55.0 °F 41.0 °F 59% 30.04 in 10.0 mi South 13.8 mph - N/A   Clear
2:51 AM 54.0 °F 43.0 °F 66% 30.03 in 10.0 mi South 12.7 mph - N/A   Clear
3:51 AM 53.1 °F 44.1 °F 71% 30.03 in 10.0 mi SSW 11.5 mph 20.7 mph N/A   Clear
4:51 AM 52.0 °F 46.0 °F 80% 30.04 in 10.0 mi SSW 11.5 mph - N/A   Clear
5:51 AM 52.0 °F 46.0 °F 80% 30.04 in 10.0 mi SSW 10.4 mph - N/A   Clear
6:51 AM 53.1 °F 48.0 °F 83% 30.05 in 10.0 mi South 10.4 mph 19.6 mph N/A   Clear
7:51 AM 55.0 °F 50.0 °F 83% 30.06 in 10.0 mi South 10.4 mph - N/A   Clear
8:51 AM 59.0 °F 50.0 °F 72% 30.06 in 10.0 mi SSW 23.0 mph 28.8 mph N/A   Clear
9:51 AM 63.0 °F 50.0 °F 63% 30.05 in 10.0 mi South 23.0 mph 32.2 mph N/A   Clear
10:51 AM 68.0 °F 50.0 °F 52% 30.03 in 10.0 mi South 18.4 mph 28.8 mph N/A   Clear
11:51 AM 73.0 °F 48.0 °F 41% 29.99 in 10.0 mi South 16.1 mph 21.9 mph N/A   Clear
12:51 PM 75.0 °F 46.0 °F 36% 29.95 in 10.0 mi South 20.7 mph 25.3 mph N/A   Clear
1:51 PM 77.0 °F 43.0 °F 30% 29.91 in 10.0 mi South 16.1 mph 26.5 mph N/A   Clear
2:51 PM 78.1 °F 41.0 °F 27% 29.88 in 10.0 mi South 17.3 mph 24.2 mph N/A   Clear
3:51 PM 77.0 °F 39.9 °F 26% 29.88 in 10.0 mi South 17.3 mph 23.0 mph N/A   Clear
4:51 PM 73.9 °F 41.0 °F 30% 29.87 in 10.0 mi South 9.2 mph 19.6 mph N/A   Clear
5:51 PM 71.1 °F 41.0 °F 34% 29.86 in 10.0 mi South 12.7 mph - N/A   Clear
6:51 PM 66.9 °F 42.1 °F 40% 29.87 in 10.0 mi Calm Calm - N/A   Clear
7:51 PM 62.1 °F 42.1 °F 48% 29.88 in 10.0 mi WSW 4.6 mph - N/A   Clear
8:51 PM 63.0 °F 43.0 °F 48% 29.88 in 10.0 mi South 8.1 mph - N/A   Clear
9:51 PM 62.1 °F 44.1 °F 52% 29.87 in 10.0 mi South 6.9 mph - N/A   Clear
10:51 PM 62.1 °F 44.1 °F 52% 29.85 in 10.0 mi South 10.4 mph - N/A   Clear
11:51 PM 60.1 °F 44.1 °F 55% 29.84 in 10.0 mi South 8.1 mph - N/A   Clear